NANOSATC-BR1

Last updated on Wed Oct 29 2025 00:03:53 GMT+0000 (Coordinated Universal Time)

1 40024U 14033Q 25301.47499979 .00019566 00000+0 84380-3 0 9992 2 40024 98.0936 309.6102 0001936 273.8171 86.2842 15.22597421618616
UTC large
Height (km)
Speed (km/s)
/
Latitude / Longitude
Inclination (degrees)
Orbital Period (minutes)
Azimuth
Elevation
Range (km)
Doppler Factor

Next 0 passes for location: London (51.5072 / 0.1276)

Sorry there are no passes over London.